Content
SEND FEEDBACK

Daily
Averages
Monthly
Summary
Canada

MONTREAL, QUEBEC


Home > North America > Canada > Quebec
Elevation: 118 feet     Latitude: 45 28N     Longitude: 073 45W

WEATHER
 
SELECT A DAY
Number of Records: 198,177;   Date Range: 1/1/95 - 7/30/14
 
SHARE

PRINT THIS DATA

[ ← Previous Day ]
WEATHER ALMANAC - JANUARY 29, 2013
[ Next Day → ]
[ °C ]   °F
Weather ElementAverageHighLow
Temperature23.2 °F33.8 °F (11:30 pm)12.2 °F (2:00 am)
Dewpoint10.3 °F30.2 °F (11:00 pm) (7:00 pm)
Humidity69.6 %93 % (11:00 pm)53 % (1:00 am)
Wind Speed7.9 mph12.7 mph (7:00 pm)
Weather ElementAverage
Visibility11.4 mi
Wind DirectionENE (59.7 °)

Weather ElementTotal
Precipitation---
Heating Degree Days42 (Base 65)
Averaged from 35 records on January 29, 2013
WEATHER CONDITIONS BREAKOUT
WIND DIRECTION BREAKOUT
WEATHER BY HOUR - JANUARY 29, 2013
[ °C ]   °F
Local TimeTemperatureDewpointHumidityBarometerVisibilityWind DirectionWind SpeedGust SpeedPrecipitationEventsConditions
1:00 AM15.0 °F5.0 °F53 %30.07 in15.0 miNNE (20°)11.5 mphPartly Cloudy
1:00 AM15.8 °F5.0 °F62 %30.07 in15.0 miNNE (20°)10.4 mphMostly Cloudy
2:00 AM12.2 °F3.2 °F67 %30.09 in15.0 miNNE (20°)8.1 mphPartly Cloudy
3:00 AM12.2 °F3.2 °F67 %30.11 in15.0 miNNE (20°)8.1 mphPartly Cloudy
4:00 AM12.2 °F3.2 °F67 %30.12 in15.0 miNNE (20°)10.4 mphPartly Cloudy
5:00 AM14.0 °F3.2 °F62 %30.12 in15.0 miNNE (30°)4.6 mphScattered Clouds
6:00 AM15.8 °F5.0 °F62 %30.13 in15.0 miNE (40°)2.3 mphOvercast
7:00 AM14.0 °F6.8 °F73 %30.13 in15.0 miNNE (20°)4.6 mphOvercast
7:00 AM15.0 °F6.0 °F57 %30.13 in15.0 miNNE (20°)4.6 mphOvercast
8:00 AM15.8 °F6.8 °F68 %30.17 in15.0 miNorth (350°)5.8 mphOvercast
9:00 AM15.8 °F6.8 °F68 %30.20 in15.0 miNorth (10°)6.9 mphOvercast
10:00 AM17.6 °F8.6 °F68 %30.19 in15.0 miNE (40°)8.1 mphOvercast
11:00 AM23.0 °F14.0 °F68 %30.17 in12.0 miENE (60°)8.1 mphOvercast
12:00 PM23.0 °F15.8 °F74 %30.16 in15.0 miSE (140°)5.8 mphOvercast
1:00 PM24.0 °F16.0 °F61 %30.12 in15.0 miEast (100°)5.8 mphOvercast
1:00 PM23.0 °F15.8 °F74 %30.12 in15.0 miEast (100°)5.8 mphOvercast
2:00 PM24.8 °F17.6 °F74 %30.08 in15.0 miENE (70°)10.4 mphOvercast
2:29 PM26.6 °F0.0 °F15.0 miNE (50°)4.6 mphOvercast
3:00 PM26.6 °F17.6 °F69 %30.09 in15.0 miNNE (30°)10.4 mphOvercast
3:52 PM26.6 °F0.0 °F12.0 miNE (50°)9.2 mphOvercast
4:00 PM26.6 °F17.6 °F69 %30.08 in12.0 miNE (50°)9.2 mphOvercast
5:00 PM26.6 °F19.4 °F74 %30.04 in12.0 miENE (70°)11.5 mphOvercast
6:00 PM28.4 °F21.2 °F74 %30.03 in15.0 miENE (60°)9.2 mphOvercast
7:00 PM28.0 °F21.0 °F66 %29.99 in15.0 miEast (80°)10.4 mphOvercast
7:00 PM28.4 °F21.2 °F74 %29.99 in15.0 miENE (70°)12.7 mphOvercast
8:00 PM28.4 °F21.2 °F74 %29.96 in15.0 miNE (40°)9.2 mphOvercast
9:00 PM30.2 °F23.0 °F75 %29.94 in4.0 miNNE (30°)9.2 mphLight Freezing Drizzle
9:10 PM28.4 °F0.0 °F3.0 miNNE (30°)9.2 mphRainLight Freezing Rain
9:19 PM26.6 °F0.0 °F2.0 miNNE (20°)10.4 mphRainLight Freezing Rain
9:30 PM26.6 °F0.0 °F2.0 miNNE (30°)11.5 mphRainLight Freezing Rain
10:00 PM30.2 °F26.6 °F86 %29.89 in2.0 miEast (80°)8.1 mphRainLight Freezing Rain
10:32 PM30.2 °F0.0 °F1.5 miEast (90°)6.9 mphRainLight Freezing Rain
11:00 PM32.0 °F30.2 °F93 %29.86 in1.2 miEast (90°)5.8 mphRainLight Freezing Rain
11:30 PM33.8 °F0.0 °F1.5 miENE (70°)4.6 mphRainLight Rain
11:43 PM33.8 °F0.0 °F3.0 miENE (70°)2.3 mphRainLight Rain
Hourly data recorded from CYUL, located miles away from Montreal, Quebec







STORIES FROM OUR PARTNERS